St. Joseph, KS

12:26 PM CST on November 21, 2019 (GMT -0600)
Rosecrans Memorial

Weather History for KSTJ - July, 2019

Change the Weather History Date:

Wednesday, July 17, 2019

  Actual Average Record
Temperature  
Mean Temperature 86 °F 77 °F  
Max Temperature 95 °F 87 °F 106 °F (1954)
Min Temperature 76 °F 67 °F 51 °F (2014)
Degree Days  
Heating Degree Days 0 0  
Month to date heating degree days 0 0  
Since 1 June heating degree days 1 8  
Since 1 July heating degree days 0 0  
Cooling Degree Days 21 12  
Month to date cooling degree days 258 202  
Year to date cooling degree days 652 582  
Since 1 June cooling degree days 551 469  
Growing Degree Days 35 (Base 50)    
Moisture  
Dew Point 74 °F    
Average Humidity 70    
Maximum Humidity 87    
Minimum Humidity 53    
Precipitation  
Precipitation T in 0.18 in 1.98 in (1924)
Month to date precipitation 0.22 2.71  
Year to date precipitation 21.49 19.84  
Sea Level Pressure  
Sea Level Pressure 29.82 in    
Wind  
Wind Speed 11 mph (South)    
Max Wind Speed 22 mph    
Max Gust Speed 31 mph    
Visibility 9 miles    
Events Rain    
T = Trace of Precipitation, MM = Missing Value Source: NWS Daily Summary

Daily Weather History Graph

Daily Weather History Graph

Search for Another Location

Airport or City:

Astronomy

Jul. 17, 2019 Rise Set
Actual Time 6:05 AM CDT 8:45 PM CDT
Civil Twilight 5:33 AM CDT 9:17 PM CDT
Nautical Twilight 4:54 AM CDT 9:56 PM CDT
Astronomical Twilight 4:09 AM CDT 10:40 PM CDT
Moon 9:35 PM CDT (7/17) 6:38 AM CDT (7/17)
Length of Visible Light 15h 43m
Length of Day
14h 40m
Full, 99% of the Moon is Illuminated
Jul 17
Full
Jul 24
Last Quarter
Jul 31
New
Aug 7
First Quarter
Aug 15
Full

Hourly Weather History & Observations

Time (CDT) Temp. Heat Index Dew Point Humidity Pressure Visibility Wind Dir Wind Speed Gust Speed Precip Events Conditions
12:53 AM 78.1 °F - 72.0 °F 81% 29.88 in 8.0 mi South 4.6 mph - N/A   Clear
1:53 AM 77.0 °F - 72.0 °F 84% 29.87 in 8.0 mi South 4.6 mph - N/A   Clear
2:53 AM 78.1 °F - 72.0 °F 81% 29.87 in 10.0 mi SSW 5.8 mph - N/A   Clear
3:53 AM 75.9 °F - 71.1 °F 85% 29.87 in 9.0 mi South 4.6 mph - N/A   Clear
4:53 AM 75.9 °F - 71.1 °F 85% 29.86 in 9.0 mi SE 4.6 mph - N/A   Clear
5:53 AM 77.0 °F - 71.1 °F 82% 29.85 in 9.0 mi SSE 8.1 mph - N/A   Clear
6:53 AM 78.1 °F - 72.0 °F 81% 29.86 in 8.0 mi South 3.5 mph - N/A   Clear
7:53 AM 80.1 °F 83.8 °F 72.0 °F 76% 29.87 in 7.0 mi SSE 10.4 mph - N/A   Scattered Clouds
8:53 AM 84.0 °F 91.2 °F 73.9 °F 72% 29.86 in 7.0 mi South 9.2 mph - N/A   Clear
9:53 AM 84.9 °F 92.1 °F 73.9 °F 69% 29.86 in 8.0 mi South 12.7 mph - N/A   Clear
10:53 AM 87.1 °F 96.3 °F 75.0 °F 67% 29.83 in 10.0 mi South 17.3 mph 24.2 mph N/A   Clear
11:53 AM 84.0 °F 92.6 °F 75.9 °F 76% 29.86 in 7.0 mi SSW 10.4 mph - 0.00 in Rain Light Rain
12:53 PM 87.1 °F 98.8 °F 77.0 °F 72% 29.84 in 10.0 mi South 11.5 mph - 0.00 in   Partly Cloudy
1:53 PM 86.0 °F 96.9 °F 77.0 °F 74% 29.83 in 9.0 mi South 10.4 mph - 0.00 in   Scattered Clouds
2:53 PM 91.9 °F 107.3 °F 78.1 °F 64% 29.81 in 10.0 mi South 16.1 mph 26.5 mph N/A   Clear
3:53 PM 93.0 °F 108.9 °F 78.1 °F 62% 29.79 in 9.0 mi South 15.0 mph 23.0 mph N/A   Clear
4:53 PM 95.0 °F 106.7 °F 75.0 °F 52% 29.78 in 10.0 mi South 16.1 mph 26.5 mph N/A   Clear
5:53 PM 93.9 °F 106.9 °F 75.9 °F 56% 29.76 in 10.0 mi South 16.1 mph - N/A   Clear
6:53 PM 93.0 °F 105.3 °F 75.9 °F 57% 29.75 in 10.0 mi South 11.5 mph - N/A   Clear
7:53 PM 91.0 °F 101.6 °F 75.0 °F 59% 29.75 in 9.0 mi South 11.5 mph - N/A   Clear
8:53 PM 88.0 °F 96.5 °F 73.9 °F 63% 29.77 in 9.0 mi South 11.5 mph - N/A   Clear
9:53 PM 87.1 °F 95.4 °F 73.9 °F 65% 29.78 in 10.0 mi South 11.5 mph - N/A   Clear
10:53 PM 86.0 °F 93.0 °F 73.0 °F 65% 29.79 in 10.0 mi South 10.4 mph - N/A   Clear
11:53 PM 86.0 °F 93.0 °F 73.0 °F 65% 29.80 in 10.0 mi South 13.8 mph - N/A   Clear